CZ-6A DEB

Satellite information

Favourite Embed

Satellite Type and Status

DEBRISIN ORBIT

Key statistics

Satellite CZ-6A DEB at a glance.

Uptime

1129

Days in orbit

Revolutions

≈ 13.9

Per day

Orbit

SSO

Sun Synchronous Orbit

Inclination

98.9

Latest

Satellite identification and parameters

Extended collection of information and parameters for CZ-6A DEB.

Object identification

Identified? True

Debris? True

Object name: CZ-6A DEB

International designator: 2022-151PB

Object number (NORAD): 54625

Object ID (CCSDS): 54625

Country: PEOPLES REPUBLIC OF CHINA (PRC)

Current information (Y/N): Y

RCS size: SMALL

Orbital parameters

Period: 103.464 minutes

Inclination: 98.9205 deg

SMA: 7300.484 km

Apoapsis: 1019.153 km

Periapsis: 825.545 km

RAAN: 317.26 deg

Eccentricy: 0.01325996

Argument of periapsis: 245.3477 deg

Mean anomaly: 113.3826 deg

Mean motion: 13.91795123 rev/day

Mean motion (dot): 0.00000633 rev/day2

B* drag term: 0.00049494575 1/REarth

Two-line elements (TLE)

Creation date: Dec. 13, 2025, 5:47 p.m.

Reference frame: TEME

Reference center: EARTH

Epoch: Dec. 13, 2025, 4:43 a.m. UTC

TLE line 0: 0 CZ-6A DEB

TLE line 1: 1 54625U 22151PB 25347.19695004 .00000633 00000-0 49495-3 0 9994

TLE line 2: 2 54625 98.9205 317.2600 0132600 245.3477 113.3826 13.91795123155444

Live tracking on map

Real-time ground track for satellite CZ-6A DEB.

In-orbit conjunctions

There are no conjunctions computed for CZ-6A DEB, at the moment. Check back to stay up to date, as we update our databases every day.

Go to all conjunctions

Associated space launch

Chinese satellite reported for atmospheric/ocean/environmental/spatial parameter research purposes, details TBD.

CZ-6A DEB was lifted into orbit during the mission ‘Long March 6A | Yunhai 3’, on board a Long March 6A space rocket.

The launch took place on Nov. 11, 2022, 10:52 p.m. from Launch Complex 9A.

For more information about the launch, click the button.

Launch to space Long March 6A | Yunhai 3
Long March 6A | Yunhai 3

Agency: N/A

Status: Launch Successful

Launch date: Nov. 11, 2022, 10:52 p.m. UTC

Rocket: Long March 6A

Launch pad: Launch Complex 9A

Location: Taiyuan Satellite Launch Center, People's Republic of China

...

Latest news about this satellite

There are no fresh news available about this satellite. Check back as we update our databases every day.


Newsletter sign-up

Weekly statistics, charts and insights to help you stay on top of the space industry.